Wind_Speed
20 19 19 18 17 16 15 15 14 14 14 13 13 13 13 13 13 14 14 15 15 16 16 16 16 16 16 17 17 18 19 20 20 19 20 19 18 20 20 19 19 19 18 17 17 16 14 14 14 14 12 10 10 10 8 8 7 6 6 6 5 6 7 10 13 13 15 15 15 14 12 10 12 13 11 9 7 5 5 5 4 3 3 4 6 6 6 8
19 19 19 18 18 17 16 16 15 15 15 14 14 14 14 14 14 14 15 15 16 16 17 17 17 17 17 18 18 18 19 20 21 21 21 19 20 22 22 21 20 20 20 18 17 17 15 14 14 14 12 11 10 10 9 8 7 5 6 7 7 7 9 12 14 14 17 19 21 18 14 13 13 13 12 10 8 6 5 6 5 3 4 4 5 6 5 7
19 19 19 18 18 17 17 17 16 16 16 16 16 15 15 15 15 15 15 16 16 17 17 18 19 19 19 19 19 19 19 20 21 22 22 21 22 23 23 22 21 21 21 19 19 18 16 14 14 13 12 11 11 10 9 8 7 5 6 9 8 7 9 12 15 17 19 22 24 20 16 15 14 13 12 10 9 8 5 6 6 4 5 5 5 7 6 6
19 19 19 19 18 18 18 18 18 18 17 17 17 17 17 17 17 17 17 17 17 18 18 19 20 20 21 20 21 20 20 21 20 22 24 23 23 23 24 24 23 22 22 21 20 19 17 16 14 13 13 12 11 10 9 8 6 5 6 8 8 7 8 12 14 15 18 22 25 21 17 16 15 14 13 12 10 9 7 6 6 5 5 6 6 7 7 6
19 20 20 19 19 19 19 19 19 19 18 18 18 18 18 18 18 18 19 19 19 19 20 20 21 22 22 22 23 22 23 21 19 23 25 24 25 25 25 25 24 24 22 22 22 20 19 18 17 15 13 12 11 10 9 9 8 5 7 6 7 6 7 11 11 7 10 20 23 19 17 17 15 14 13 13 11 9 7 6 6 5 5 6 7 8 7 7
20 21 21 20 20 20 20 21 21 20 20 19 19 19 20 20 20 20 20 21 21 21 22 22 23 23 24 24 25 25 25 22 20 24 25 24 26 26 26 26 26 25 24 24 23 22 21 20 19 16 15 14 12 11 9 9 9 6 7 5 4 4 5 8 5 3 10 17 19 18 18 17 14 13 13 12 10 9 7 6 6 5 5 6 7 7 8 8
22 22 22 22 21 22 21 22 22 22 21 21 20 20 20 21 21 21 22 22 23 23 24 24 25 26 26 26 27 27 28 26 21 24 26 25 27 28 28 28 27 26 26 26 25 24 23 22 21 18 16 14 14 12 10 10 9 7 7 3 1 1 4 4 4 9 14 15 14 16 17 15 14 13 12 11 10 9 7 6 6 6 6 6 7 7 7 8
23 24 23 23 23 23 22 22 22 22 22 22 22 22 22 22 23 23 23 24 24 25 26 26 27 28 28 29 29 30 31 28 21 23 28 27 27 29 29 29 29 29 28 28 27 26 24 24 23 20 19 18 17 16 13 11 9 8 7 1 1 2 3 4 6 8 12 13 11 13 12 12 14 14 13 12 11 9 6 6 7 8 7 6 7 7 7 8
24 24 24 24 24 24 23 23 22 23 23 23 23 23 24 24 24 25 25 26 26 27 27 28 29 29 30 31 32 33 34 29 22 23 29 30 28 30 31 31 31 30 30 29 28 28 26 25 25 24 23 21 20 18 15 13 10 8 7 2 1 3 3 4 6 7 11 13 11 10 9 9 12 13 13 13 11 9 7 7 8 9 8 7 7 8 8 7
25 25 25 25 24 24 24 23 23 23 23 24 24 25 25 26 26 27 27 27 28 28 29 29 30 30 31 32 33 36 35 30 24 24 31 32 30 31 33 33 32 31 32 30 29 29 28 27 27 27 26 23 20 18 16 13 10 9 7 4 2 4 5 4 8 10 11 12 10 8 9 9 10 12 13 12 11 9 7 7 9 10 8 7 8 8 8 7
25 25 25 25 25 25 25 24 24 24 25 25 25 26 26 27 27 28 28 28 28 29 29 30 30 31 32 33 35 36 34 31 26 25 32 34 31 33 34 34 33 33 33 32 31 30 30 31 30 29 28 25 21 18 16 14 11 10 9 7 4 5 7 6 8 11 11 12 10 9 9 9 10 11 11 12 11 10 9 9 10 10 8 7 8 9 8 7
25 25 25 25 25 25 25 25 25 25 26 26 27 27 28 28 28 29 29 29 29 29 29 29 29 30 31 33 35 35 33 33 29 27 33 35 33 34 34 35 35 34 33 33 32 32 32 33 32 31 29 26 23 20 18 16 13 12 11 9 5 5 7 7 8 9 11 13 11 9 9 8 8 8 10 12 11 11 11 10 10 10 8 8 9 10 8 7
25 26 25 25 25 26 26 26 26 26 27 27 28 28 29 29 29 29 29 29 29 28 28 27 27 27 29 31 33 34 32 35 33 29 33 36 34 35 36 36 35 34 34 34 34 33 33 33 33 33 31 28 26 22 19 18 16 14 12 11 8 5 7 9 8 7 10 13 11 9 9 7 6 7 10 11 11 12 12 12 11 10 9 8 9 10 9 8
26 26 26 26 26 26 26 26 26 27 27 28 28 29 30 30 30 30 29 28 27 26 26 25 25 25 26 27 28 30 32 36 36 32 34 37 35 35 36 36 36 35 34 34 34 34 34 34 33 33 31 28 25 22 19 16 15 15 14 13 11 7 8 10 10 9 9 11 12 11 10 8 7 8 9 10 12 13 14 13 11 10 10 9 9 10 10 9
26 26 26 26 26 27 26 26 27 28 28 28 29 30 30 30 30 30 28 27 25 24 24 23 24 23 24 25 24 26 30 34 35 33 34 36 36 36 37 37 37 35 35 35 35 35 34 33 34 34 30 27 25 22 21 16 13 15 15 14 13 11 10 10 10 10 9 10 12 14 11 10 9 8 9 11 12 14 15 14 12 11 10 10 9 10 10 9
27 27 27 27 27 27 27 27 27 28 28 29 29 30 30 30 30 29 27 26 24 23 22 22 23 23 24 24 23 25 28 29 32 33 34 35 36 37 37 37 37 36 36 36 36 35 33 33 34 33 31 30 28 25 25 21 15 14 15 14 14 13 11 11 10 9 8 7 11 15 12 9 10 9 9 11 12 13 15 14 13 11 10 10 10 9 10 9
27 27 27 27 28 28 27 27 27 28 28 29 29 30 30 30 29 27 26 24 23 22 22 23 23 24 24 23 23 24 26 26 28 31 34 35 36 37 37 37 37 37 37 37 36 34 33 33 33 33 32 32 31 28 28 25 17 13 13 13 14 14 13 13 12 10 9 7 10 15 14 11 11 11 10 11 11 13 15 14 13 12 11 11 10 10 10 10
28 28 27 28 28 28 28 27 28 28 28 29 29 29 29 29 28 26 25 23 22 22 22 23 23 24 24 23 24 25 25 26 27 29 33 35 36 38 37 37 37 37 37 37 36 34 33 34 35 35 34 33 31 30 27 22 16 15 14 12 13 13 14 15 13 13 13 12 11 13 13 13 11 10 10 11 12 13 15 15 14 13 12 11 11 10 11 11
28 28 28 28 29 29 28 28 28 28 29 29 28 29 29 27 26 24 23 22 21 21 22 22 22 23 24 24 24 23 22 23 27 29 32 34 36 38 38 37 37 37 37 36 34 34 34 35 36 36 35 33 31 29 26 21 18 18 17 14 14 13 14 15 15 15 16 16 16 14 13 13 12 11 11 12 13 15 16 15 15 15 15 13 11 11 11 11
29 29 29 29 29 29 28 28 28 28 28 28 28 28 27 26 24 22 22 21 21 21 21 20 21 22 22 22 21 19 19 22 27 29 31 32 34 36 38 38 37 37 37 35 34 34 35 36 36 35 33 31 30 29 26 23 21 20 18 16 14 13 13 14 14 16 19 19 19 18 16 15 14 12 13 14 14 15 16 15 15 15 16 14 13 11 11 11
29 29 29 29 29 29 28 28 28 28 28 28 27 26 26 25 22 21 21 20 20 20 19 19 20 20 20 20 19 17 18 21 24 26 27 29 32 35 37 38 37 36 35 34 35 35 35 35 34 32 30 29 30 29 27 26 23 18 17 17 14 13 14 12 13 16 20 21 20 21 20 18 18 15 14 15 14 15 16 16 16 15 15 16 14 12 11 11
29 29 29 29 29 29 28 27 27 28 28 27 26 25 24 24 22 20 19 18 18 18 18 17 17 18 17 18 17 17 19 19 21 23 24 27 30 34 36 37 36 35 34 34 35 35 35 33 32 30 29 29 29 30 29 27 23 17 16 18 15 15 15 12 13 16 18 19 19 20 21 20 20 17 15 15 14 15 17 17 17 16 15 16 16 14 12 11
29 29 29 30 29 28 28 27 27 27 27 25 24 24 23 22 20 19 18 17 15 15 16 16 16 16 16 17 16 16 18 18 19 20 22 26 29 33 35 35 35 34 33 33 34 35 33 30 28 27 28 30 29 31 32 28 23 19 18 18 15 14 15 11 12 14 13 15 17 19 22 22 20 17 16 15 14 16 18 19 18 17 16 15 16 16 14 12
29 29 29 30 29 28 27 27 27 26 25 24 23 22 21 20 18 17 17 17 14 13 14 14 14 14 14 15 14 14 15 15 17 19 21 25 28 31 33 34 34 33 33 32 32 33 31 27 25 25 27 30 31 31 31 28 24 18 15 18 15 13 16 13 10 10 9 9 14 19 21 22 20 17 17 16 13 15 19 20 20 19 18 17 17 17 16 15
29 29 29 29 29 28 27 26 26 25 24 23 21 20 19 18 17 17 17 16 14 12 12 11 11 11 12 13 12 12 12 12 15 17 20 24 27 29 32 33 32 31 31 31 31 31 29 26 25 24 25 28 31 31 27 25 20 15 14 20 16 13 15 14 11 10 9 6 8 14 18 20 19 18 19 17 14 15 20 22 21 20 20 19 18 17 18 17
30 29 29 29 28 27 26 25 25 24 23 21 20 19 17 17 17 17 17 15 10 7 7 9 9 8 9 9 9 9 10 11 14 16 19 23 26 28 30 30 30 29 29 28 29 29 27 26 25 25 24 25 29 27 24 22 17 18 21 20 16 15 14 13 12 11 12 9 5 8 14 17 18 19 20 18 16 16 19 22 22 21 21 20 18 17 18 18
30 29 29 28 28 27 26 25 23 22 21 19 18 17 16 16 15 14 12 9 6 5 6 9 9 7 7 6 7 8 9 9 12 14 18 21 24 28 31 30 29 28 28 29 28 26 25 27 26 25 25 24 27 26 21 21 20 21 24 17 14 17 16 14 14 12 11 10 7 7 11 15 16 18 20 18 17 16 17 20 23 23 21 20 19 18 18 18
30 30 29 28 27 26 25 24 23 21 19 18 16 15 15 13 11 9 7 7 8 7 7 10 8 6 6 5 5 7 6 6 9 12 16 19 21 25 28 29 29 26 26 27 27 24 24 27 27 25 26 27 29 26 19 20 23 22 21 15 12 12 14 16 15 12 10 8 8 7 8 13 15 17 18 17 17 16 15 17 21 23 21 20 20 18 18 18
30 29 28 27 26 25 24 23 21 19 18 17 15 14 13 10 7 6 5 7 9 9 12 14 10 6 4 2 3 5 5 6 9 11 14 18 21 23 25 26 28 28 26 24 25 23 18 20 25 24 23 26 28 26 20 20 22 21 17 11 11 11 12 16 17 13 11 9 9 7 6 9 13 15 15 14 13 13 13 14 18 24 24 21 20 19 18 19
30 29 28 26 25 25 23 21 20 18 16 15 13 12 10 7 6 6 8 9 9 11 15 15 9 6 4 1 2 4 6 6 6 8 12 17 20 23 24 25 28 29 27 24 25 24 16 12 20 22 17 22 28 26 23 21 18 16 12 5 8 13 13 14 16 15 12 12 11 10 8 8 10 11 11 12 13 14 14 13 15 22 27 23 21 21 19 19
30 29 27 26 25 23 22 20 18 16 14 12 10 8 6 5 5 8 11 11 11 12 14 12 9 6 2 3 6 5 6 5 4 5 10 15 19 23 24 25 27 28 28 27 23 23 21 16 20 24 18 21 27 26 26 28 20 15 12 9 9 12 14 16 18 18 16 14 12 11 11 9 9 9 9 11 13 14 15 14 13 17 25 26 22 21 21 20
30 28 26 25 24 22 20 18 16 14 12 9 8 6 4 2 5 10 14 13 11 9 9 11 10 8 3 3 6 4 4 4 3 3 8 13 17 22 24 23 25 25 26 27 20 18 21 16 14 21 22 23 26 27 29 29 25 23 17 19 18 13 14 16 18 18 16 13 12 11 10 9 10 10 10 10 11 12 13 15 14 14 21 28 24 21 22 21
29 27 25 24 23 21 18 16 15 12 9 7 5 4 2 2 7 13 16 14 10 7 7 5 8 10 6 3 2 2 4 3 2 3 6 12 14 18 21 21 23 21 17 17 17 18 22 17 12 16 20 24 27 30 28 21 21 27 20 22 24 20 19 18 17 17 15 12 11 11 10 9 9 9 10 10 11 11 12 14 14 13 18 28 27 23 23 22
28 26 25 23 22 19 16 15 13 10 8 5 3 3 4 1 9 17 14 8 7 8 6 2 5 10 7 4 2 2 4 1 2 3 5 10 13 15 18 19 21 20 15 12 14 19 23 21 18 16 17 21 24 29 29 20 19 24 19 21 25 25 26 20 16 18 16 14 13 13 12 10 8 8 10 11 11 12 12 14 16 14 17 27 31 27 26 24
27 25 24 22 20 17 15 13 11 9 6 3 2 4 5 1 10 15 10 3 7 8 8 6 4 8 5 3 2 3 4 5 5 3 5 8 9 11 13 15 19 21 18 14 14 16 16 14 12 12 14 16 19 27 30 25 24 23 17 20 21 23 27 22 16 17 17 16 16 15 14 12 10 10 11 12 12 12 12 14 16 16 17 25 33 32 29 27
26 25 23 21 19 15 13 12 10 8 5 3 2 3 2 3 8 10 9 3 10 9 8 10 9 7 3 1 1 3 3 6 4 3 6 8 8 11 8 8 16 20 16 14 15 16 14 10 8 11 11 10 15 24 26 23 23 18 15 19 16 16 22 22 18 17 16 17 17 15 14 14 12 11 11 13 14 12 12 12 14 17 19 23 30 33 31 28
25 24 22 19 16 12 11 10 9 7 4 4 5 3 3 1 4 8 5 2 6 9 7 9 7 7 4 1 2 4 4 3 1 3 6 7 9 14 12 6 10 15 15 14 15 17 19 17 16 15 12 9 12 21 23 22 23 20 17 19 15 13 19 22 20 18 16 17 17 14 13 12 11 10 10 14 15 13 11 11 12 16 22 25 30 34 33 29
25 23 21 18 14 10 10 9 7 6 4 4 5 4 5 4 5 9 3 3 4 5 4 6 3 9 8 6 8 2 8 3 2 5 7 9 10 15 17 11 8 8 11 13 14 18 20 20 19 15 11 10 12 21 26 27 28 27 24 20 15 14 20 22 19 17 17 17 17 16 13 11 11 9 9 13 14 12 11 10 10 13 18 25 32 37 36 32
24 22 20 15 11 9 10 8 6 5 4 4 2 1 0 1 4 4 1 5 5 3 0 2 6 4 4 6 11 7 8 6 1 3 9 11 11 16 23 20 13 10 10 13 15 19 22 21 17 12 7 10 12 20 28 30 29 27 24 21 18 15 17 20 20 18 18 18 16 15 13 10 10 9 10 12 12 12 12 12 10 9 13 24 36 40 37 33
23 22 18 12 9 9 9 7 5 4 3 3 2 0 1 3 6 4 4 3 2 0 3 3 11 7 5 5 5 4 9 5 4 4 7 8 13 20 23 21 20 17 16 17 12 15 22 23 17 16 12 13 12 18 29 31 29 26 23 19 18 17 16 19 21 19 19 19 17 15 13 11 10 9 10 11 12 13 13 11 8 6 10 21 34 39 35 32
23 22 17 12 9 8 7 6 4 3 2 1 2 3 2 6 14 9 8 8 7 5 5 1 6 10 9 7 3 3 9 6 3 4 3 4 14 21 16 17 24 22 23 21 14 15 23 24 22 24 18 15 11 14 26 33 29 26 25 19 15 15 15 15 17 18 18 19 20 18 16 13 10 7 7 7 9 10 8 6 7 8 10 16 25 31 32 32
23 21 16 11 7 5 5 5 4 4 4 4 1 3 3 7 12 8 2 3 3 6 2 5 2 9 10 7 4 4 7 8 3 4 4 3 11 17 14 20 25 20 22 23 17 20 27 26 26 28 21 16 13 10 17 29 32 30 29 25 19 17 16 15 15 17 17 19 21 19 17 16 12 8 7 6 6 6 6 9 11 12 13 15 18 22 27 32
22 19 15 9 6 4 3 3 4 4 4 4 2 2 4 6 7 7 5 6 5 8 7 5 6 7 8 8 4 3 6 8 5 5 7 5 8 15 18 23 22 15 19 24 19 22 29 27 24 24 20 18 19 13 10 20 27 31 31 28 25 24 19 15 15 16 16 19 21 19 17 18 15 11 9 8 6 5 9 13 14 14 16 17 17 17 20 26
21 17 12 7 4 4 3 3 3 2 3 2 3 2 1 2 6 6 6 6 5 6 6 6 5 4 5 9 7 5 6 7 5 5 7 8 9 13 15 19 21 19 21 24 23 25 32 31 24 20 19 17 17 15 11 15 17 24 25 20 19 23 19 13 14 17 18 17 19 20 18 18 16 12 11 10 9 7 8 12 15 15 15 16 17 18 17 19
21 16 10 5 2 3 2 3 3 2 0 0 3 3 1 1 6 8 10 11 8 6 6 5 5 5 7 9 9 7 6 7 6 5 7 10 11 11 8 10 19 22 19 20 23 29 35 35 28 21 21 21 18 17 18 17 12 15 22 18 14 16 15 12 14 18 17 15 17 20 18 17 16 12 9 9 10 9 8 10 12 14 14 15 16 18 20 20
20 15 9 4 2 1 2 3 3 4 3 2 3 2 4 4 5 5 8 9 7 4 7 6 4 4 6 7 8 8 8 8 5 3 6 8 7 8 6 8 14 17 16 19 23 29 34 35 31 26 26 28 26 23 24 22 11 10 19 20 13 9 8 14 15 17 17 15 18 20 18 17 16 15 12 7 6 8 10 10 9 10 14 15 15 16 18 20
18 13 10 6 3 2 3 4 5 4 3 2 3 3 4 5 5 4 6 7 6 6 7 6 5 5 3 5 9 10 10 11 8 5 6 6 3 5 8 9 10 10 12 17 20 25 32 31 29 29 31 32 32 30 27 21 12 10 11 13 13 15 14 16 14 15 17 17 18 17 16 16 15 17 17 11 8 8 9 9 9 10 11 12 13 13 14 17
16 12 11 7 4 3 4 5 6 6 5 3 4 6 5 5 5 5 7 7 7 7 5 4 6 5 4 5 10 13 14 15 13 10 11 10 7 9 11 9 9 8 10 15 17 20 27 30 29 32 33 31 33 33 28 21 16 16 14 14 17 21 24 18 12 13 17 19 18 16 17 18 15 15 17 16 15 13 9 7 7 9 12 12 12 12 11 12
14 12 10 7 5 4 4 5 5 5 6 6 6 7 5 5 6 7 8 7 7 6 4 6 8 6 7 9 11 12 14 16 16 14 14 14 11 10 10 9 11 11 11 15 16 17 22 27 30 32 33 29 28 30 28 23 20 21 22 22 20 22 26 24 19 16 18 21 22 20 20 20 16 14 15 16 16 16 13 8 5 7 11 14 15 16 15 12
14 12 10 8 7 6 6 6 6 6 6 7 7 7 7 8 7 7 8 9 9 7 6 8 10 10 9 11 9 9 11 14 15 14 14 13 11 9 8 9 12 14 13 14 15 16 22 27 29 29 31 30 27 27 29 27 22 20 23 25 22 22 26 28 25 19 17 20 23 23 23 23 19 16 15 16 16 16 15 13 9 9 11 12 12 14 16 14
13 11 9 8 7 8 9 9 9 8 7 6 8 8 9 9 7 7 9 9 8 9 8 10 13 12 10 10 10 10 11 13 15 15 14 14 14 13 12 12 13 14 12 13 15 17 23 28 29 28 30 31 29 28 31 31 22 15 20 22 19 19 23 26 25 22 20 20 23 25 26 26 25 20 17 17 18 17 16 15 14 13 13 13 12 12 13 13
12 11 9 8 8 10 11 11 9 9 8 8 8 8 8 8 6 7 9 8 8 10 10 11 14 12 9 11 11 12 14 15 15 16 17 19 18 17 16 15 14 12 11 15 20 21 22 26 29 30 30 31 32 32 35 34 26 20 21 20 20 20 21 23 24 24 25 26 26 27 26 26 27 24 19 17 18 18 17 16 16 15 15 15 15 14 14 14
Wind_Direction
350 350 350 350 350 350 349 347 344 341 336 331 327 321 316 311 305 300 296 293 289 285 282 278 275 272 269 266 260 253 246 243 240 238 237 233 229 232 235 236 234 233 233 227 220 214 210 212 217 221 223 223 219 216 216 216 224 239 248 253 263 276 287 283 270 264 261 238 218 213 202 190 174 175 184 186 195 199 173 145 136 143 165 168 164 168 155 138
348 348 348 348 348 347 346 344 342 338 334 330 325 321 316 311 306 302 298 294 290 287 283 279 276 273 269 266 262 258 250 243 239 237 237 233 229 230 232 233 233 232 232 228 223 215 207 208 213 217 218 219 217 212 209 206 216 233 249 260 267 279 288 285 277 266 255 231 211 202 195 188 180 183 181 179 192 201 180 143 146 153 155 173 170 170 164 144
347 347 348 348 347 346 344 342 340 337 333 329 325 321 317 312 308 304 300 295 291 287 284 280 277 274 270 266 263 259 254 246 239 237 236 231 229 230 230 231 231 231 231 227 223 217 206 203 209 213 213 214 211 207 204 207 218 232 252 262 267 281 290 289 289 275 248 217 197 188 187 182 172 179 179 176 189 193 185 163 162 162 159 172 174 174 169 152
347 348 349 348 347 345 342 340 338 335 331 328 324 321 317 314 310 305 301 297 293 289 285 280 277 274 271 267 263 259 256 249 240 237 237 231 230 230 229 229 230 230 229 227 224 218 206 199 203 205 205 206 205 203 201 209 222 237 251 262 283 298 301 302 303 282 240 198 182 179 177 171 164 176 178 177 193 194 193 181 165 160 167 175 176 176 169 155
347 348 348 348 346 343 341 339 336 331 327 324 321 319 316 313 309 306 302 299 295 291 287 282 278 274 271 268 265 260 256 251 241 240 238 231 230 230 228 228 228 229 229 226 222 217 205 199 200 201 200 198 198 202 207 216 214 225 250 268 305 311 320 323 326 297 216 175 171 172 167 167 171 185 184 180 193 194 190 183 167 162 170 184 182 175 165 158
343 345 345 344 342 341 341 338 333 328 323 320 317 315 312 310 308 304 301 298 295 291 287 283 278 274 271 268 265 261 257 251 240 239 238 230 229 229 228 227 226 227 228 225 221 216 205 200 201 200 199 197 196 196 202 218 208 214 247 264 318 326 347 343 355 103 144 152 163 163 160 168 175 187 185 178 189 190 181 179 175 168 173 190 187 175 163 157
340 340 341 340 339 338 338 335 331 326 322 318 314 311 309 307 305 303 299 296 293 289 286 282 278 274 270 266 264 261 258 253 238 237 240 231 226 228 227 226 224 224 225 224 220 215 206 201 202 201 201 199 201 199 203 217 207 212 238 249 355 31 28 23 98 119 131 142 158 160 160 166 171 183 182 177 191 190 174 176 184 179 179 187 183 174 163 155
337 338 338 338 336 335 334 331 328 324 320 316 312 310 307 305 302 300 297 294 291 287 284 280 276 272 269 265 262 259 257 255 241 236 241 234 226 226 226 225 223 221 222 223 219 215 208 202 201 204 205 201 202 199 205 218 205 213 231 232 53 125 86 93 124 124 136 144 152 160 167 171 172 179 179 181 191 189 178 181 190 188 184 185 176 167 164 157
335 335 335 335 334 332 330 328 326 323 319 315 311 308 306 304 301 299 296 293 290 287 283 279 274 269 266 263 260 258 257 254 243 235 238 235 226 224 226 225 222 221 221 221 220 216 210 204 201 206 210 209 206 200 202 212 204 214 229 206 116 167 139 127 152 152 149 149 144 156 182 188 177 176 178 184 187 182 180 186 190 190 189 188 175 163 165 162
332 332 332 332 331 330 328 326 324 321 318 314 310 307 305 303 301 300 297 294 291 287 283 278 273 268 263 259 256 256 255 251 242 235 237 235 227 224 225 225 222 221 220 220 220 216 210 206 204 207 212 212 212 208 206 209 205 210 217 205 192 195 181 162 174 174 166 159 150 163 189 192 177 173 180 186 187 182 182 190 192 190 191 190 173 161 166 167
329 329 329 329 329 328 326 324 323 321 317 313 309 307 305 303 302 300 298 296 292 288 284 278 273 267 262 258 254 253 252 248 239 232 236 235 228 224 224 224 222 220 220 218 218 216 210 208 207 208 211 210 209 212 215 211 207 206 205 205 207 199 193 184 176 180 185 176 169 178 186 184 176 176 186 188 189 189 189 192 193 192 189 188 174 159 162 169
327 326 326 326 326 326 324 323 322 320 316 312 309 307 305 304 302 301 299 296 293 289 285 280 274 268 263 258 254 251 249 246 238 228 234 234 227 224 222 223 223 220 219 218 217 215 212 211 209 209 212 210 205 209 218 213 209 207 201 204 206 195 195 191 174 184 197 184 179 183 179 182 183 190 197 191 193 196 194 194 193 191 186 185 177 159 159 168
325 324 323 324 324 324 323 321 321 318 315 312 309 307 306 305 303 302 300 297 294 291 287 283 277 271 266 261 256 253 248 244 238 227 230 232 226 223 222 221 222 220 218 218 217 215 214 213 211 211 213 212 204 202 211 209 208 213 206 205 208 199 202 200 184 188 199 197 202 191 176 189 195 201 203 194 199 199 194 195 191 189 185 182 178 162 159 164
323 322 321 321 322 322 321 320 319 317 314 311 309 308 306 305 305 303 301 297 294 291 288 285 280 275 269 264 259 256 248 243 239 229 229 232 226 223 221 220 221 219 217 217 217 215 214 213 213 214 214 214 210 206 211 207 205 213 211 209 213 208 204 203 195 197 212 222 222 198 181 192 194 198 201 196 200 197 194 194 190 188 185 181 180 168 160 161
321 320 319 319 320 319 318 318 317 315 313 311 309 308 307 307 306 305 302 297 293 290 289 286 282 277 271 268 263 257 251 244 240 232 229 231 227 223 221 219 220 219 217 217 217 215 214 213 214 216 214 214 215 215 223 221 207 208 206 205 210 206 204 211 208 208 226 237 220 200 187 187 191 194 194 198 200 196 196 194 190 191 188 183 183 173 162 161
318 317 317 317 317 317 316 316 316 314 312 310 309 308 308 308 308 306 302 295 291 289 287 284 281 277 273 269 264 259 255 250 245 236 230 230 227 223 221 219 219 218 217 217 216 215 213 213 216 216 212 212 212 214 223 226 217 208 202 201 208 205 201 214 216 210 224 232 205 195 190 183 188 189 187 198 202 200 201 197 193 193 192 188 184 176 167 162
316 315 315 316 316 315 315 315 314 313 311 310 310 310 310 310 309 306 301 294 288 287 285 282 280 278 274 271 265 259 256 253 248 239 231 229 227 224 221 219 218 217 217 216 215 214 210 210 215 215 212 211 210 210 214 218 218 218 212 207 213 210 201 208 214 213 214 211 196 194 200 201 194 187 185 196 201 200 198 197 196 194 194 191 187 183 172 165
314 314 314 315 315 314 314 314 313 312 311 310 310 311 311 311 311 307 300 292 287 285 283 281 280 276 272 269 265 260 257 253 247 239 232 229 225 223 221 219 218 217 217 216 214 212 210 208 211 212 211 210 210 209 209 210 216 229 229 217 215 212 206 209 214 215 208 202 202 201 206 212 206 197 193 193 196 200 198 196 197 195 196 196 194 192 180 171
314 314 314 315 314 313 313 313 313 312 311 311 311 312 312 313 312 307 299 293 289 287 284 282 279 274 271 270 268 268 267 257 245 236 230 227 223 221 220 219 218 217 216 216 214 212 210 209 210 211 210 207 207 207 208 211 217 227 230 221 218 213 208 210 212 215 210 205 205 206 205 206 210 213 206 199 195 201 204 201 198 195 195 199 201 199 188 179
315 314 315 315 314 313 313 313 313 312 311 312 312 313 313 314 313 308 301 296 292 289 286 283 278 274 273 273 274 276 271 256 242 233 227 224 222 219 218 218 217 217 216 215 214 212 210 210 211 211 210 207 205 203 207 212 215 223 226 220 220 219 213 210 211 217 217 211 208 207 205 202 208 211 205 203 199 201 208 207 204 200 195 198 202 203 195 186
316 315 315 315 314 313 313 313 313 312 312 312 313 314 314 314 313 309 304 300 295 292 287 282 278 276 274 274 277 275 263 251 242 233 225 221 219 216 215 216 216 216 216 215 214 212 210 210 211 210 208 206 204 201 202 207 209 219 229 223 223 223 216 211 213 220 219 213 211 211 205 201 206 206 202 207 207 203 207 210 211 207 199 198 202 205 198 192
317 317 316 316 315 314 314 314 313 313 313 314 315 316 314 313 313 310 306 302 298 294 289 284 279 277 276 275 273 267 261 252 240 231 223 217 215 213 213 214 214 215 215 215 214 212 210 208 209 209 205 203 202 201 200 201 206 219 227 218 215 214 215 219 219 223 221 213 216 218 209 203 205 202 205 214 215 208 206 209 213 213 208 201 201 203 200 194
319 318 317 317 316 315 315 314 313 314 314 315 316 316 315 314 313 311 307 303 301 294 289 286 282 280 278 275 271 265 261 251 237 227 218 214 211 209 210 211 212 213 214 214 214 213 209 206 207 207 204 200 199 203 201 196 201 215 223 216 208 215 228 238 230 226 229 219 218 219 211 210 210 206 211 220 219 212 208 208 209 211 214 210 203 201 199 197
320 320 318 318 317 316 315 315 314 315 316 316 317 316 315 314 312 310 306 303 304 298 291 286 282 281 278 275 271 265 260 247 233 223 214 211 208 205 207 209 210 212 213 213 213 213 207 202 204 205 206 201 196 203 202 195 197 204 228 231 214 218 230 235 246 236 228 219 213 213 208 211 215 213 216 222 222 216 211 212 210 207 211 214 209 202 199 201
322 321 320 319 319 317 316 316 315 316 317 317 317 317 315 313 310 307 303 301 303 300 294 292 287 283 280 276 269 261 255 241 227 217 210 207 203 201 204 207 208 210 213 213 213 211 203 198 199 200 204 203 199 201 198 194 191 187 224 238 217 213 225 229 252 242 221 220 206 209 208 208 213 214 215 218 219 218 213 213 214 210 211 214 211 205 201 204
324 323 322 321 320 318 317 317 317 318 319 318 319 318 314 312 309 307 306 302 302 302 299 309 309 296 286 277 266 253 243 231 218 210 207 204 200 198 199 203 206 208 210 211 213 210 201 195 196 197 199 203 202 195 186 184 187 192 212 227 219 217 224 227 241 233 218 225 214 207 210 208 212 213 213 215 216 219 216 214 216 214 213 214 214 209 204 205
326 325 324 323 321 320 318 318 319 320 320 319 319 316 313 314 312 314 314 305 311 337 338 336 332 318 300 278 252 240 235 227 212 204 204 202 199 198 198 198 201 206 207 209 209 206 201 193 191 194 192 194 195 184 174 180 192 204 207 215 226 223 223 227 233 229 218 227 240 235 224 216 211 207 208 212 214 219 219 216 217 217 215 215 215 213 210 208
328 327 325 324 323 321 320 320 321 321 321 319 318 318 318 320 322 328 327 325 333 340 350 350 338 318 309 285 247 229 224 216 200 196 200 200 196 198 202 199 197 202 207 209 207 199 201 198 191 192 191 188 184 175 175 189 197 203 199 209 233 225 226 231 229 226 219 230 248 248 234 219 209 209 213 216 218 222 226 224 220 218 217 216 214 213 212 210
330 329 327 325 324 323 322 322 323 322 321 320 322 325 325 326 339 355 352 350 355 353 353 354 344 320 307 276 240 213 190 194 195 187 192 197 193 194 201 199 196 199 201 208 207 192 193 206 194 185 190 190 179 177 189 193 192 194 189 211 235 211 215 229 227 222 213 220 232 227 227 217 210 217 222 219 218 220 226 232 226 218 215 216 215 212 212 213
332 330 328 327 326 324 324 324 323 322 322 325 328 328 329 332 346 14 13 4 9 2 352 354 357 344 325 139 153 187 176 181 199 187 187 192 190 191 197 198 198 198 197 202 206 192 176 196 196 181 190 197 185 186 187 170 171 187 185 216 234 209 202 211 220 218 208 215 220 216 218 216 214 220 221 220 222 221 223 232 233 221 214 214 215 211 210 213
333 331 329 330 328 326 326 325 323 323 324 329 330 328 335 345 6 32 30 25 26 14 356 349 5 17 339 155 139 166 183 181 193 189 190 189 187 191 195 200 200 200 203 200 202 199 179 179 195 186 191 204 196 193 177 160 161 171 184 213 216 218 215 205 211 210 205 214 215 214 222 217 211 212 214 220 228 231 232 239 247 233 218 213 216 214 210 212
334 332 331 331 329 328 328 326 324 324 327 331 328 325 333 21 59 43 26 24 28 26 11 347 352 20 24 153 136 148 172 170 173 171 186 186 188 193 192 197 200 200 208 202 192 193 178 172 199 195 197 204 197 195 181 171 170 161 180 219 208 211 224 212 212 206 199 212 217 221 233 226 213 209 214 223 230 235 237 240 250 251 226 213 214 216 211 211
335 333 333 332 331 330 329 327 324 324 330 329 324 324 332 60 78 54 30 15 9 28 47 15 326 338 7 82 86 78 119 132 177 167 175 177 185 197 192 195 198 190 201 207 187 175 167 166 198 204 208 211 203 198 185 176 177 164 176 219 208 207 221 215 218 216 206 216 228 240 248 240 222 215 223 231 233 232 232 234 238 249 232 212 211 216 213 212
336 334 334 333 333 333 331 327 324 328 328 319 321 298 291 16 90 78 59 27 23 30 28 36 289 311 351 50 19 66 111 210 238 161 161 173 180 195 193 193 193 177 174 195 189 181 179 181 194 199 211 218 212 202 184 168 180 176 186 216 209 211 220 214 219 225 221 226 237 248 253 252 242 227 228 231 234 233 232 233 230 237 232 213 209 212 212 213
336 335 334 334 335 335 333 328 326 330 318 308 329 289 292 29 98 81 60 57 79 44 335 323 313 315 348 25 38 113 169 219 210 169 173 179 173 175 182 193 192 178 172 184 187 187 184 186 205 219 222 215 204 199 188 177 183 187 201 219 214 216 217 211 215 223 225 231 239 249 257 260 256 245 238 236 240 238 232 233 230 232 234 218 212 211 210 212
336 335 335 335 337 337 335 332 328 323 308 281 268 280 335 87 103 67 31 57 101 72 353 332 330 336 347 270 40 90 208 221 198 187 188 181 165 155 157 188 188 182 185 188 180 177 169 169 217 239 233 212 194 198 195 183 182 185 204 223 229 230 220 215 219 223 224 228 236 247 256 258 257 256 250 243 244 242 237 238 234 231 230 222 217 214 211 212
336 335 334 335 341 342 338 336 328 316 301 268 266 281 310 278 89 49 358 243 120 74 9 304 303 357 16 297 38 117 169 244 194 162 184 181 169 160 148 155 183 187 196 186 168 175 173 171 196 217 231 240 213 199 191 179 173 170 188 219 236 234 220 218 225 228 227 229 234 241 247 251 255 260 251 237 238 244 245 247 246 237 228 223 221 215 211 212
336 334 333 335 343 345 340 340 329 311 295 274 271 278 285 280 50 33 344 202 135 78 356 272 294 359 355 4 348 192 150 112 99 143 186 189 174 162 149 154 182 175 185 180 167 176 173 170 187 202 226 246 214 195 189 181 175 173 182 199 209 209 211 216 224 228 228 231 235 238 240 246 252 253 239 227 229 237 242 245 250 244 227 222 220 213 208 209
336 334 332 334 340 343 342 339 326 312 298 297 304 108 270 130 82 21 64 137 137 134 90 145 109 20 3 37 331 291 124 92 25 174 206 197 174 160 148 153 163 152 184 199 183 178 173 175 182 165 178 228 206 191 191 186 186 192 198 196 188 188 204 217 223 223 226 229 231 235 236 239 245 239 225 221 222 230 236 236 240 239 223 219 217 211 207 209
335 333 330 329 334 340 342 335 322 314 288 300 329 142 346 65 85 30 352 41 60 317 277 170 143 157 161 111 315 282 115 96 306 253 222 201 176 170 160 157 154 157 197 205 181 174 175 178 170 138 159 221 214 191 191 189 192 200 207 208 198 188 197 218 225 225 230 232 230 231 229 232 245 240 226 224 226 230 233 230 230 221 208 215 215 212 210 210
333 331 329 325 330 337 340 330 309 284 232 224 323 290 301 71 84 64 352 358 15 320 299 14 152 180 183 157 161 155 132 137 241 231 207 180 184 184 176 166 158 167 197 191 164 173 180 177 163 149 167 210 208 188 191 192 195 196 198 205 209 203 203 219 232 233 233 232 230 229 226 228 244 255 247 250 251 246 241 231 227 217 203 206 213 217 218 213
332 330 329 327 331 335 336 324 291 262 228 185 46 20 99 115 108 105 280 312 334 274 249 52 293 221 202 193 148 125 157 151 155 212 195 166 183 177 162 163 168 180 193 184 174 183 184 177 167 162 170 185 179 179 198 199 199 201 203 205 210 213 211 217 231 236 236 233 231 231 232 232 237 248 262 280 285 267 244 226 213 207 205 204 208 216 220 215
332 329 327 326 330 338 342 315 278 272 261 222 200 96 132 172 166 153 195 202 219 244 193 157 265 249 209 207 162 135 194 172 145 189 205 206 173 161 159 165 172 177 175 179 186 185 182 179 172 168 167 165 158 158 212 218 207 208 213 214 214 213 210 219 231 233 234 239 238 236 241 243 241 247 257 263 268 259 243 231 214 204 204 206 208 210 215 213
332 328 323 317 324 346 349 296 269 294 337 310 253 233 136 227 228 214 244 255 252 257 212 185 250 263 198 201 199 207 204 178 167 183 202 209 179 170 176 177 181 181 176 182 185 181 181 181 176 169 160 156 150 151 200 230 221 215 212 210 218 215 212 227 244 241 236 241 245 241 245 250 248 253 262 255 247 254 259 242 227 220 214 208 208 209 211 211
330 328 324 312 314 346 330 286 262 223 165 270 263 263 132 230 253 234 252 280 288 271 250 232 242 227 201 207 217 209 176 177 201 196 200 214 201 188 186 180 187 191 193 193 185 183 187 187 185 174 155 157 159 160 184 205 222 218 202 198 211 212 210 221 236 246 251 256 256 247 245 251 249 250 260 257 245 244 253 246 231 228 225 216 211 208 207 210
331 327 317 291 259 297 288 273 252 218 196 202 254 257 163 196 259 240 241 278 303 280 261 257 253 235 213 208 198 185 186 197 188 163 207 222 215 203 189 181 192 197 204 205 194 190 191 191 191 182 163 162 164 167 184 194 198 199 197 200 195 182 233 247 232 235 247 254 255 250 248 252 253 250 249 254 256 240 234 235 226 223 226 221 214 209 206 207
330 317 303 289 254 221 230 245 241 220 206 217 235 218 192 225 266 263 254 276 289 276 264 254 254 255 240 213 189 185 208 203 164 152 194 182 163 190 188 203 216 202 194 202 203 201 199 197 192 183 174 169 165 168 182 184 162 140 170 199 188 174 208 239 241 239 240 241 249 256 258 255 253 250 243 242 257 250 234 235 229 217 217 213 206 206 208 210
329 310 303 301 274 232 221 231 233 218 213 217 201 197 219 251 254 249 261 273 273 274 268 244 250 244 225 228 207 201 215 210 192 196 191 168 164 172 168 192 218 204 198 206 207 206 208 208 201 189 184 178 171 172 177 169 149 142 160 197 204 190 191 205 234 246 236 235 246 258 260 255 253 252 247 245 251 253 252 255 236 213 211 214 217 220 218 217
325 309 299 289 263 242 230 232 230 212 207 213 211 208 222 244 241 244 258 262 263 277 272 252 261 253 230 238 229 217 222 220 215 212 197 192 209 204 184 191 190 184 202 215 211 206 209 216 214 202 194 188 180 177 175 169 160 159 173 192 200 196 194 200 212 215 213 222 233 243 250 251 250 247 246 249 250 248 248 247 238 231 231 232 236 238 235 229
320 307 295 279 256 235 227 225 228 226 209 207 222 225 225 238 248 258 262 259 264 280 281 261 260 258 250 256 256 235 228 227 224 219 209 210 218 214 215 218 202 195 203 214 217 206 200 210 217 212 202 197 190 182 179 175 164 164 185 194 192 199 207 211 211 205 202 213 224 235 246 250 247 242 242 247 247 245 242 237 236 243 243 242 242 243 240 233
314 304 291 272 247 230 226 220 222 229 212 201 224 230 231 244 257 262 262 268 278 279 275 267 264 264 264 268 266 248 235 232 222 213 210 211 206 202 207 214 214 211 204 211 225 213 199 207 215 212 205 201 198 192 186 180 174 190 214 209 197 203 213 217 219 214 211 217 224 232 241 245 244 242 242 243 243 243 244 242 242 242 243 248 248 243 242 238
306 295 284 264 239 227 225 221 222 229 217 214 228 231 234 247 250 249 257 269 274 269 268 270 273 276 271 265 266 260 253 246 235 222 216 214 213 212 212 213 219 220 205 212 228 223 208 211 216 214 209 203 200 199 193 188 192 217 231 215 199 198 201 209 220 219 217 221 223 227 235 240 240 238 235 232 232 236 240 239 241 244 249 254 253 246 246 246
Height
5887 5886 5885 5884 5883 5882 5881 5880 5880 5879 5878 5878 5878 5877 5877 5876 5876 5876 5876 5876 5876 5876 5876 5876 5877 5877 5878 5878 5879 5880 5881 5882 5883 5884 5885 5886 5888 5887 5887 5888 5889 5889 5890 5891 5892 5893 5895 5896 5897 5898 5899 5900 5901 5901 5902 5903 5903 5903 5903 5904 5904 5904 5905 5904 5903 5902 5903 5904 5904 5905 5907 5909 5910 5910 5912 5913 5913 5913 5914 5915 5917 5918 5918 5919 5919 5920 5920 5920
5886 5885 5884 5883 5882 5881 5880 5879 5878 5877 5877 5876 5876 5875 5875 5875 5874 5874 5874 5874 5874 5874 5874 5874 5874 5875 5875 5876 5877 5878 5879 5880 5881 5882 5883 5885 5886 5885 5886 5887 5887 5888 5889 5890 5891 5893 5894 5895 5896 5897 5898 5899 5900 5901 5901 5902 5902 5903 5903 5903 5903 5903 5903 5902 5900 5899 5899 5901 5902 5903 5906 5908 5909 5911 5912 5913 5913 5914 5915 5916 5917 5918 5919 5919 5920 5921 5921 5921
5884 5883 5882 5881 5880 5879 5878 5877 5876 5876 5875 5874 5874 5873 5873 5873 5872 5872 5872 5872 5872 5872 5872 5872 5872 5873 5873 5874 5874 5875 5876 5877 5879 5880 5881 5882 5883 5883 5885 5885 5886 5887 5887 5889 5890 5891 5893 5894 5895 5896 5897 5898 5899 5900 5901 5902 5902 5903 5903 5902 5902 5902 5902 5900 5898 5897 5895 5897 5900 5902 5905 5907 5908 5911 5912 5913 5913 5913 5915 5916 5917 5919 5919 5920 5920 5921 5922 5922
5882 5882 5881 5880 5879 5878 5877 5876 5875 5874 5873 5873 5872 5871 5871 5871 5870 5870 5870 5869 5869 5869 5870 5870 5870 5870 5870 5871 5872 5873 5874 5875 5877 5878 5878 5880 5881 5882 5883 5884 5885 5885 5886 5887 5889 5890 5892 5894 5895 5895 5896 5897 5898 5899 5900 5901 5902 5902 5902 5901 5901 5901 5901 5899 5896 5895 5892 5893 5898 5900 5903 5906 5909 5911 5912 5913 5913 5914 5915 5916 5918 5919 5920 5920 5920 5921 5922 5922
5881 5880 5879 5878 5877 5876 5875 5874 5873 5872 5871 5871 5870 5869 5869 5868 5868 5868 5867 5867 5867 5867 5867 5867 5867 5867 5868 5868 5869 5870 5870 5872 5875 5874 5875 5878 5879 5880 5881 5882 5883 5884 5885 5886 5887 5889 5891 5893 5894 5895 5895 5897 5898 5899 5900 5900 5901 5901 5901 5901 5902 5902 5901 5898 5895 5893 5891 5893 5898 5900 5904 5907 5909 5912 5912 5913 5914 5914 5916 5917 5918 5920 5920 5921 5921 5921 5922 5923
5879 5878 5877 5876 5875 5874 5873 5871 5871 5870 5869 5868 5868 5867 5866 5866 5865 5865 5865 5864 5864 5864 5864 5864 5864 5864 5865 5865 5866 5867 5867 5870 5872 5871 5872 5875 5876 5877 5878 5880 5881 5883 5884 5884 5886 5887 5890 5891 5893 5894 5895 5896 5896 5898 5898 5899 5900 5900 5900 5901 5902 5902 5901 5899 5895 5895 5895 5897 5900 5902 5905 5907 5909 5911 5912 5913 5914 5914 5916 5917 5918 5920 5921 5921 5921 5922 5922 5923
5878 5877 5875 5874 5873 5871 5870 5869 5868 5867 5867 5866 5865 5864 5864 5863 5862 5862 5861 5861 5861 5861 5861 5861 5861 5861 5861 5862 5862 5863 5864 5866 5870 5869 5869 5872 5873 5875 5876 5877 5879 5881 5882 5883 5884 5886 5888 5890 5892 5893 5894 5895 5896 5897 5897 5897 5899 5900 5900 5901 5902 5902 5901 5899 5898 5898 5899 5900 5902 5904 5905 5907 5909 5911 5912 5913 5914 5915 5916 5917 5918 5920 5921 5922 5922 5922 5923 5923
5876 5875 5873 5872 5871 5869 5868 5867 5866 5865 5864 5863 5862 5861 5860 5860 5859 5858 5858 5857 5857 5857 5857 5857 5857 5857 5857 5858 5859 5859 5859 5862 5868 5868 5867 5869 5871 5872 5873 5875 5877 5878 5879 5880 5882 5884 5886 5888 5890 5892 5892 5893 5893 5895 5896 5896 5899 5899 5900 5901 5902 5902 5901 5900 5900 5900 5901 5902 5904 5906 5907 5908 5909 5910 5911 5913 5914 5915 5916 5917 5918 5920 5921 5922 5922 5923 5923 5924
5874 5873 5871 5870 5868 5867 5866 5864 5863 5862 5861 5860 5859 5858 5857 5856 5855 5855 5854 5853 5853 5853 5853 5853 5853 5853 5853 5854 5854 5854 5855 5860 5865 5866 5863 5865 5868 5869 5870 5872 5874 5876 5877 5878 5880 5882 5884 5886 5888 5889 5889 5891 5892 5894 5894 5895 5898 5899 5899 5901 5902 5902 5901 5901 5901 5901 5902 5903 5905 5906 5908 5909 5909 5910 5911 5913 5914 5915 5916 5917 5918 5920 5921 5922 5923 5923 5924 5924
5872 5871 5869 5867 5866 5864 5863 5862 5860 5859 5858 5857 5856 5854 5853 5852 5852 5851 5850 5849 5849 5848 5848 5848 5848 5849 5849 5849 5849 5849 5851 5857 5861 5862 5860 5861 5864 5866 5867 5869 5871 5873 5875 5877 5878 5880 5883 5884 5886 5887 5888 5890 5892 5893 5894 5896 5898 5898 5899 5901 5902 5902 5902 5902 5902 5903 5904 5904 5905 5906 5908 5909 5910 5911 5911 5913 5914 5915 5916 5917 5918 5920 5921 5923 5923 5924 5924 5925
5870 5868 5867 5865 5863 5862 5860 5859 5857 5856 5854 5853 5852 5851 5850 5849 5848 5846 5846 5845 5844 5844 5843 5843 5843 5844 5844 5844 5845 5845 5848 5852 5857 5858 5856 5857 5860 5862 5863 5865 5868 5870 5872 5874 5876 5878 5880 5881 5883 5885 5886 5888 5891 5892 5893 5895 5897 5898 5900 5901 5901 5902 5903 5903 5903 5904 5905 5905 5906 5907 5908 5909 5910 5911 5912 5913 5914 5915 5916 5917 5918 5920 5921 5923 5924 5924 5925 5926
5868 5866 5865 5863 5861 5859 5857 5856 5854 5852 5851 5850 5849 5847 5846 5845 5844 5842 5841 5840 5839 5839 5838 5838 5838 5839 5839 5840 5840 5842 5845 5847 5851 5853 5851 5852 5856 5857 5860 5862 5864 5867 5869 5872 5874 5876 5877 5879 5881 5883 5884 5886 5889 5890 5890 5893 5896 5897 5899 5900 5901 5901 5902 5903 5904 5905 5905 5906 5907 5907 5909 5910 5910 5911 5912 5913 5913 5915 5916 5917 5918 5920 5921 5923 5924 5924 5925 5926
5866 5864 5862 5860 5858 5856 5854 5852 5851 5849 5848 5847 5845 5844 5842 5841 5839 5838 5837 5836 5835 5834 5833 5834 5834 5834 5835 5835 5836 5838 5841 5842 5844 5848 5847 5847 5851 5853 5856 5858 5861 5864 5866 5869 5871 5873 5875 5877 5879 5881 5882 5885 5887 5887 5888 5891 5894 5896 5898 5900 5900 5901 5901 5902 5903 5905 5905 5906 5907 5908 5908 5909 5910 5911 5912 5913 5914 5915 5916 5917 5918 5920 5921 5922 5924 5925 5925 5926
5863 5861 5859 5857 5855 5853 5851 5849 5847 5846 5844 5843 5841 5840 5838 5837 5835 5834 5833 5832 5831 5830 5829 5830 5830 5830 5830 5831 5833 5834 5836 5836 5838 5843 5843 5843 5847 5849 5852 5855 5857 5860 5863 5866 5868 5870 5872 5875 5877 5879 5882 5885 5887 5888 5887 5889 5893 5895 5897 5899 5900 5901 5901 5901 5902 5904 5905 5905 5907 5907 5908 5908 5910 5911 5912 5913 5914 5915 5916 5917 5918 5919 5920 5922 5923 5924 5925 5926
5861 5859 5857 5855 5853 5850 5848 5846 5844 5842 5841 5839 5837 5836 5834 5833 5831 5830 5829 5828 5827 5826 5826 5826 5826 5827 5827 5827 5830 5830 5830 5832 5834 5839 5840 5841 5843 5846 5848 5851 5853 5857 5860 5862 5865 5867 5870 5873 5875 5877 5882 5885 5887 5889 5887 5889 5893 5894 5896 5898 5899 5900 5900 5901 5902 5904 5904 5904 5905 5907 5907 5908 5910 5911 5911 5912 5914 5915 5916 5917 5918 5919 5920 5922 5923 5924 5925 5926
5858 5856 5854 5852 5850 5848 5845 5843 5841 5839 5837 5835 5834 5832 5831 5829 5828 5826 5825 5824 5824 5823 5823 5823 5823 5823 5824 5824 5826 5826 5827 5829 5831 5834 5837 5838 5840 5842 5844 5847 5850 5854 5856 5859 5862 5865 5868 5871 5873 5876 5880 5882 5884 5886 5886 5887 5890 5892 5894 5896 5898 5899 5900 5900 5902 5903 5904 5904 5904 5906 5907 5908 5910 5910 5911 5912 5913 5915 5916 5917 5918 5919 5920 5922 5923 5924 5925 5926
5855 5853 5851 5849 5847 5845 5842 5840 5837 5836 5834 5832 5830 5829 5827 5826 5825 5823 5822 5821 5820 5820 5820 5820 5819 5820 5820 5821 5822 5823 5824 5826 5828 5830 5832 5834 5836 5839 5841 5844 5847 5850 5853 5855 5859 5862 5866 5868 5871 5874 5877 5879 5881 5883 5884 5886 5888 5890 5892 5894 5896 5898 5899 5900 5901 5903 5903 5904 5905 5905 5906 5908 5909 5910 5911 5912 5913 5914 5916 5917 5918 5919 5920 5921 5923 5924 5924 5925
5852 5850 5848 5846 5844 5842 5839 5836 5834 5832 5831 5829 5827 5826 5824 5823 5821 5820 5819 5818 5817 5817 5817 5816 5817 5816 5816 5817 5818 5819 5821 5823 5824 5825 5828 5830 5832 5835 5838 5841 5844 5847 5849 5852 5856 5860 5863 5865 5867 5870 5873 5876 5879 5882 5884 5886 5888 5889 5890 5893 5895 5897 5898 5898 5899 5901 5902 5903 5904 5905 5906 5907 5909 5909 5910 5911 5913 5914 5915 5916 5917 5918 5920 5921 5922 5923 5924 5925
5849 5847 5845 5843 5841 5839 5836 5834 5831 5829 5827 5826 5824 5823 5821 5820 5819 5817 5816 5815 5815 5814 5814 5814 5813 5813 5813 5814 5815 5816 5818 5819 5819 5820 5823 5825 5828 5832 5835 5838 5841 5843 5846 5850 5854 5857 5859 5861 5864 5867 5870 5874 5878 5881 5884 5887 5888 5887 5888 5891 5893 5896 5897 5897 5898 5899 5900 5902 5903 5904 5905 5907 5908 5909 5910 5910 5911 5913 5914 5915 5916 5917 5919 5921 5922 5923 5925 5925
5847 5845 5843 5840 5838 5836 5833 5831 5829 5827 5825 5823 5821 5820 5818 5817 5816 5814 5813 5812 5812 5811 5811 5811 5810 5810 5810 5811 5812 5813 5814 5814 5814 5816 5819 5822 5825 5828 5831 5834 5837 5840 5844 5848 5851 5853 5856 5859 5862 5865 5870 5874 5877 5880 5883 5885 5885 5886 5887 5889 5890 5893 5895 5896 5897 5897 5898 5900 5901 5902 5904 5905 5907 5908 5909 5910 5911 5912 5913 5915 5916 5917 5918 5920 5921 5923 5924 5925
5844 5842 5840 5838 5835 5833 5831 5828 5826 5824 5822 5820 5819 5817 5816 5814 5814 5812 5811 5810 5809 5809 5809 5808 5808 5808 5808 5808 5809 5810 5809 5810 5811 5813 5816 5819 5822 5825 5828 5831 5834 5838 5842 5845 5848 5850 5853 5857 5860 5864 5869 5872 5875 5878 5880 5882 5883 5883 5885 5887 5889 5891 5894 5895 5895 5895 5896 5897 5899 5899 5901 5903 5905 5906 5908 5908 5910 5911 5912 5914 5915 5916 5918 5919 5920 5922 5923 5925
5842 5839 5837 5835 5832 5830 5828 5826 5824 5822 5820 5818 5816 5815 5813 5812 5811 5810 5809 5808 5807 5806 5806 5806 5805 5806 5806 5806 5807 5807 5807 5808 5809 5811 5814 5816 5819 5822 5825 5828 5832 5836 5840 5842 5845 5848 5851 5856 5860 5863 5867 5870 5873 5875 5877 5880 5883 5882 5883 5886 5889 5890 5892 5893 5893 5894 5895 5896 5898 5898 5900 5902 5902 5904 5906 5907 5909 5910 5911 5913 5914 5916 5917 5918 5919 5921 5923 5924
5839 5837 5834 5832 5830 5828 5826 5823 5821 5819 5818 5816 5814 5813 5811 5810 5808 5807 5806 5806 5806 5805 5804 5804 5804 5804 5804 5803 5804 5805 5805 5806 5807 5809 5811 5813 5815 5819 5822 5826 5830 5834 5837 5840 5843 5846 5850 5855 5859 5862 5864 5867 5870 5873 5875 5878 5881 5882 5881 5884 5888 5890 5890 5891 5891 5892 5893 5895 5896 5897 5899 5901 5902 5903 5905 5906 5908 5909 5910 5911 5913 5915 5917 5918 5919 5920 5922 5923
5837 5834 5832 5829 5827 5825 5823 5821 5819 5817 5816 5814 5812 5811 5809 5808 5806 5805 5804 5803 5803 5803 5802 5802 5802 5802 5802 5801 5802 5802 5803 5804 5805 5807 5809 5810 5813 5817 5821 5824 5828 5832 5835 5838 5841 5844 5849 5854 5857 5860 5862 5865 5867 5870 5873 5876 5879 5881 5881 5882 5886 5889 5889 5889 5889 5890 5892 5893 5894 5894 5897 5899 5902 5903 5904 5905 5907 5908 5909 5910 5911 5913 5915 5917 5918 5919 5921 5922
5834 5832 5829 5827 5825 5823 5821 5819 5817 5815 5814 5812 5810 5809 5807 5806 5804 5803 5802 5802 5802 5801 5801 5801 5800 5800 5800 5800 5800 5801 5801 5802 5804 5806 5807 5808 5811 5815 5819 5822 5827 5830 5834 5837 5839 5843 5848 5851 5854 5858 5861 5864 5865 5868 5873 5876 5879 5881 5881 5881 5884 5886 5886 5887 5888 5889 5891 5892 5892 5893 5895 5897 5900 5902 5902 5903 5905 5906 5907 5909 5910 5912 5913 5915 5917 5918 5920 5921
5832 5829 5827 5824 5822 5820 5819 5817 5815 5814 5812 5810 5808 5807 5806 5804 5803 5802 5801 5800 5800 5800 5800 5799 5799 5799 5798 5798 5799 5799 5800 5801 5802 5804 5805 5807 5810 5813 5817 5821 5825 5829 5832 5835 5838 5842 5846 5849 5852 5855 5859 5862 5865 5868 5872 5875 5878 5879 5879 5880 5883 5884 5884 5885 5887 5888 5890 5891 5891 5892 5894 5896 5898 5899 5900 5902 5904 5905 5906 5907 5909 5910 5912 5914 5916 5917 5919 5920
5829 5827 5825 5822 5820 5818 5816 5815 5813 5812 5810 5808 5807 5806 5805 5803 5802 5800 5799 5799 5799 5800 5800 5799 5798 5798 5797 5797 5798 5798 5799 5800 5802 5803 5805 5806 5809 5812 5815 5819 5824 5827 5830 5833 5836 5841 5845 5847 5850 5853 5857 5861 5864 5866 5869 5873 5875 5875 5877 5880 5882 5883 5884 5885 5886 5887 5888 5889 5890 5892 5893 5895 5896 5898 5899 5901 5902 5903 5905 5906 5907 5909 5911 5913 5915 5916 5918 5920
5827 5825 5822 5820 5818 5816 5814 5813 5811 5810 5809 5807 5806 5805 5803 5802 5801 5800 5799 5799 5799 5799 5799 5799 5798 5797 5797 5797 5797 5798 5799 5800 5801 5803 5804 5807 5809 5812 5815 5818 5822 5826 5829 5832 5835 5840 5844 5845 5848 5852 5856 5858 5861 5864 5867 5870 5872 5873 5877 5880 5881 5882 5883 5883 5884 5886 5887 5888 5890 5891 5892 5894 5895 5897 5898 5900 5901 5903 5904 5905 5906 5908 5910 5912 5913 5915 5917 5919
5825 5822 5820 5818 5816 5814 5812 5811 5810 5808 5807 5806 5804 5804 5802 5801 5801 5800 5799 5799 5799 5799 5798 5798 5797 5797 5796 5797 5797 5798 5799 5800 5801 5802 5804 5806 5809 5812 5815 5818 5820 5824 5828 5831 5834 5838 5843 5846 5848 5851 5854 5858 5860 5862 5865 5869 5872 5873 5877 5879 5879 5881 5882 5882 5883 5884 5886 5888 5889 5891 5892 5893 5895 5896 5897 5899 5901 5902 5904 5904 5905 5906 5908 5910 5912 5914 5915 5917
5823 5820 5818 5816 5814 5812 5811 5809 5808 5807 5805 5804 5804 5803 5802 5802 5801 5800 5800 5800 5799 5798 5798 5798 5798 5797 5796 5797 5797 5798 5799 5800 5801 5802 5804 5806 5809 5811 5814 5817 5819 5822 5826 5830 5833 5837 5841 5846 5848 5849 5853 5856 5858 5860 5864 5868 5872 5874 5875 5876 5876 5878 5880 5881 5881 5883 5886 5887 5888 5889 5891 5892 5894 5895 5897 5898 5899 5901 5902 5902 5903 5904 5906 5909 5910 5912 5914 5916
5821 5818 5816 5814 5812 5811 5809 5808 5807 5805 5804 5804 5803 5803 5802 5802 5801 5800 5800 5800 5799 5800 5800 5799 5798 5798 5797 5797 5797 5798 5799 5800 5802 5803 5804 5806 5808 5811 5814 5817 5820 5822 5825 5829 5833 5837 5839 5843 5846 5848 5851 5853 5856 5859 5863 5864 5868 5873 5876 5876 5875 5876 5878 5880 5880 5882 5884 5885 5886 5888 5890 5891 5893 5894 5895 5897 5898 5900 5901 5901 5902 5903 5905 5907 5909 5910 5912 5914
5819 5816 5814 5812 5810 5809 5808 5806 5805 5804 5804 5803 5803 5802 5802 5802 5801 5800 5800 5800 5801 5802 5802 5800 5799 5798 5798 5797 5797 5799 5800 5801 5803 5804 5805 5807 5809 5810 5813 5817 5820 5823 5827 5830 5834 5837 5839 5841 5845 5847 5849 5851 5854 5858 5861 5862 5864 5870 5874 5875 5876 5877 5877 5878 5880 5881 5883 5884 5885 5887 5888 5890 5891 5892 5893 5895 5897 5898 5899 5900 5901 5902 5904 5906 5908 5909 5911 5913
5817 5814 5812 5810 5809 5808 5806 5805 5804 5803 5803 5802 5802 5802 5802 5802 5801 5800 5801 5802 5803 5804 5804 5803 5801 5799 5799 5799 5798 5800 5801 5802 5804 5805 5805 5807 5809 5811 5814 5816 5820 5825 5828 5831 5834 5837 5838 5840 5843 5846 5848 5849 5852 5855 5860 5863 5866 5868 5871 5872 5875 5876 5876 5878 5879 5880 5882 5883 5883 5885 5886 5888 5889 5890 5892 5893 5894 5896 5897 5898 5900 5901 5902 5904 5906 5907 5909 5912
5815 5813 5811 5809 5808 5806 5805 5803 5802 5802 5802 5802 5802 5802 5802 5802 5801 5800 5803 5805 5805 5805 5805 5805 5804 5802 5800 5800 5800 5801 5803 5804 5805 5805 5806 5807 5809 5812 5814 5817 5821 5824 5827 5831 5834 5836 5838 5840 5842 5845 5847 5849 5852 5855 5858 5862 5866 5868 5868 5870 5873 5874 5875 5877 5879 5879 5880 5882 5882 5883 5885 5886 5888 5889 5891 5892 5892 5894 5895 5896 5898 5899 5900 5901 5902 5905 5907 5910
5814 5811 5809 5808 5806 5805 5803 5802 5802 5802 5802 5802 5802 5802 5802 5802 5801 5801 5804 5806 5805 5806 5806 5805 5805 5803 5802 5802 5802 5802 5803 5804 5805 5806 5807 5808 5809 5812 5815 5818 5821 5823 5826 5829 5833 5835 5839 5842 5844 5845 5847 5849 5853 5855 5856 5857 5862 5865 5866 5868 5871 5873 5874 5876 5878 5878 5879 5880 5881 5882 5883 5885 5887 5888 5890 5891 5891 5892 5893 5894 5895 5896 5897 5898 5900 5902 5905 5907
5812 5810 5808 5806 5805 5804 5803 5802 5801 5801 5801 5802 5802 5802 5802 5801 5801 5801 5804 5806 5805 5806 5807 5806 5805 5804 5803 5802 5802 5803 5804 5805 5806 5807 5808 5808 5810 5812 5815 5818 5822 5824 5825 5828 5833 5835 5837 5841 5844 5845 5846 5849 5852 5855 5856 5857 5860 5864 5866 5867 5870 5872 5873 5875 5875 5876 5879 5879 5880 5882 5882 5883 5886 5887 5889 5890 5890 5891 5892 5892 5893 5894 5895 5896 5898 5900 5903 5905
5811 5809 5807 5805 5804 5803 5802 5801 5801 5801 5801 5802 5802 5802 5802 5801 5800 5801 5803 5805 5804 5805 5807 5806 5805 5804 5803 5802 5802 5803 5805 5806 5806 5807 5808 5809 5810 5812 5815 5819 5823 5825 5826 5829 5832 5834 5835 5838 5842 5843 5845 5848 5850 5853 5856 5857 5859 5862 5865 5866 5869 5871 5871 5872 5874 5875 5877 5878 5879 5881 5882 5882 5884 5885 5887 5888 5888 5889 5890 5890 5891 5891 5891 5893 5895 5898 5901 5904
5809 5808 5806 5804 5803 5802 5801 5800 5800 5800 5800 5801 5802 5802 5802 5801 5800 5802 5803 5804 5804 5805 5805 5805 5805 5806 5804 5804 5803 5802 5804 5805 5806 5807 5808 5809 5810 5812 5815 5819 5822 5825 5827 5829 5830 5832 5835 5838 5840 5841 5844 5846 5848 5851 5854 5856 5857 5858 5860 5864 5867 5868 5869 5870 5872 5874 5876 5877 5878 5880 5881 5881 5881 5883 5884 5885 5886 5886 5886 5887 5888 5888 5888 5889 5892 5895 5898 5901
5808 5806 5805 5804 5803 5802 5801 5800 5800 5800 5800 5801 5801 5801 5801 5800 5800 5803 5804 5804 5804 5804 5804 5804 5805 5806 5805 5805 5804 5803 5803 5805 5807 5807 5807 5808 5810 5812 5813 5816 5820 5824 5827 5828 5829 5832 5835 5838 5839 5841 5843 5845 5846 5849 5853 5855 5856 5857 5859 5862 5865 5866 5868 5869 5870 5872 5874 5875 5877 5878 5880 5880 5880 5881 5882 5883 5883 5884 5884 5884 5885 5886 5886 5887 5890 5893 5896 5899
5806 5804 5804 5803 5802 5801 5800 5799 5799 5799 5800 5800 5800 5801 5801 5800 5800 5802 5804 5804 5804 5804 5804 5804 5804 5804 5804 5805 5804 5803 5804 5806 5807 5807 5807 5808 5810 5811 5813 5815 5819 5822 5824 5826 5829 5832 5835 5837 5838 5840 5842 5845 5846 5849 5852 5854 5856 5858 5860 5862 5864 5865 5867 5868 5869 5871 5872 5874 5875 5877 5878 5878 5879 5880 5880 5880 5881 5881 5882 5883 5885 5885 5885 5887 5889 5892 5895 5898
5804 5803 5802 5801 5800 5799 5798 5798 5799 5799 5800 5800 5800 5801 5801 5801 5802 5804 5806 5806 5804 5804 5803 5804 5804 5804 5803 5803 5803 5803 5804 5806 5807 5806 5806 5807 5808 5810 5813 5816 5819 5820 5822 5825 5827 5829 5832 5834 5835 5836 5839 5843 5845 5847 5851 5853 5855 5857 5859 5861 5864 5865 5867 5868 5869 5870 5871 5872 5873 5874 5876 5876 5878 5879 5879 5879 5880 5881 5882 5883 5884 5884 5885 5887 5889 5892 5895 5897
5803 5801 5800 5800 5799 5798 5797 5797 5798 5798 5799 5799 5800 5801 5801 5801 5802 5803 5805 5805 5804 5804 5803 5804 5803 5803 5803 5803 5803 5804 5804 5805 5806 5807 5806 5807 5808 5811 5814 5817 5818 5818 5820 5824 5825 5826 5828 5831 5832 5832 5836 5840 5843 5846 5849 5851 5853 5855 5856 5859 5862 5864 5865 5867 5868 5869 5870 5870 5870 5872 5874 5874 5876 5878 5878 5879 5879 5881 5882 5881 5881 5882 5884 5886 5888 5890 5892 5894
5802 5799 5799 5799 5798 5797 5796 5797 5797 5798 5798 5799 5800 5800 5800 5801 5802 5801 5802 5803 5803 5802 5802 5803 5802 5802 5803 5804 5803 5804 5804 5805 5806 5807 5807 5807 5809 5811 5812 5814 5816 5816 5818 5821 5822 5825 5828 5830 5832 5833 5835 5838 5842 5845 5847 5849 5851 5853 5854 5857 5860 5862 5864 5866 5867 5868 5869 5868 5869 5871 5872 5873 5875 5877 5877 5878 5879 5881 5881 5880 5880 5881 5882 5883 5886 5888 5890 5891
5801 5799 5798 5798 5798 5797 5796 5796 5797 5797 5797 5798 5799 5799 5799 5801 5801 5801 5800 5801 5801 5801 5801 5802 5802 5802 5802 5803 5803 5803 5804 5805 5806 5806 5807 5807 5808 5810 5811 5812 5813 5814 5816 5818 5820 5824 5826 5828 5831 5834 5836 5839 5842 5844 5846 5848 5850 5851 5853 5856 5859 5861 5863 5865 5866 5866 5867 5868 5868 5869 5871 5872 5875 5876 5877 5878 5879 5880 5881 5880 5881 5882 5882 5883 5885 5887 5889 5891
5799 5797 5797 5797 5796 5796 5796 5796 5796 5797 5797 5798 5798 5798 5799 5800 5800 5800 5800 5800 5800 5800 5800 5800 5801 5801 5802 5802 5802 5803 5804 5805 5805 5806 5806 5806 5807 5809 5810 5812 5813 5814 5816 5818 5820 5822 5823 5826 5830 5832 5834 5836 5839 5841 5842 5844 5847 5850 5851 5854 5857 5859 5862 5864 5865 5864 5865 5867 5866 5867 5870 5872 5874 5875 5876 5876 5877 5879 5881 5881 5881 5882 5883 5884 5884 5886 5888 5890
5798 5796 5795 5795 5795 5795 5795 5795 5795 5796 5797 5798 5798 5798 5799 5799 5800 5800 5799 5799 5799 5799 5799 5799 5799 5800 5800 5801 5802 5803 5803 5803 5805 5805 5806 5806 5807 5809 5810 5811 5812 5814 5816 5818 5819 5821 5822 5825 5829 5830 5831 5832 5835 5838 5840 5842 5846 5849 5852 5854 5856 5859 5861 5862 5863 5863 5864 5864 5864 5866 5868 5870 5872 5874 5875 5875 5875 5878 5880 5882 5882 5882 5882 5882 5884 5886 5888 5889
5797 5794 5793 5794 5794 5794 5794 5794 5794 5795 5795 5796 5797 5798 5798 5799 5799 5799 5798 5798 5798 5798 5798 5798 5798 5799 5799 5800 5801 5802 5802 5802 5803 5804 5804 5805 5806 5808 5810 5811 5812 5813 5816 5817 5819 5821 5822 5824 5827 5829 5829 5830 5832 5835 5839 5842 5844 5847 5852 5856 5856 5856 5858 5860 5861 5861 5862 5862 5863 5865 5866 5869 5871 5872 5874 5875 5875 5876 5879 5881 5882 5883 5882 5882 5884 5886 5887 5888
5796 5794 5793 5793 5793 5792 5793 5793 5793 5793 5794 5795 5796 5797 5797 5798 5798 5797 5797 5797 5797 5796 5797 5797 5797 5798 5798 5799 5799 5799 5800 5801 5802 5802 5803 5804 5804 5806 5808 5810 5811 5813 5814 5815 5817 5819 5821 5823 5825 5827 5828 5829 5831 5834 5838 5842 5842 5844 5849 5853 5853 5853 5855 5856 5856 5857 5859 5860 5862 5863 5864 5867 5869 5870 5872 5874 5874 5876 5878 5880 5881 5883 5884 5884 5885 5886 5887 5888
5794 5793 5792 5792 5792 5792 5792 5792 5792 5792 5793 5794 5794 5795 5796 5797 5797 5796 5796 5796 5796 5796 5796 5796 5796 5797 5797 5796 5797 5798 5799 5800 5801 5802 5803 5803 5804 5805 5806 5808 5809 5811 5811 5812 5814 5817 5819 5821 5823 5826 5828 5830 5832 5835 5838 5840 5841 5842 5844 5845 5846 5849 5850 5848 5848 5851 5856 5858 5860 5862 5863 5866 5868 5869 5871 5872 5873 5875 5878 5879 5880 5882 5883 5884 5885 5886 5887 5888
5793 5792 5791 5791 5791 5791 5791 5791 5791 5791 5792 5793 5793 5794 5794 5795 5795 5795 5795 5795 5795 5795 5795 5796 5796 5795 5795 5795 5796 5797 5798 5798 5800 5801 5803 5804 5805 5805 5806 5807 5808 5808 5809 5810 5812 5814 5816 5816 5819 5823 5828 5831 5833 5835 5836 5839 5841 5841 5839 5839 5843 5845 5845 5844 5847 5851 5855 5856 5857 5860 5862 5865 5867 5869 5870 5870 5871 5874 5877 5878 5880 5881 5882 5883 5884 5885 5886 5888
5791 5790 5789 5789 5790 5790 5790 5790 5790 5790 5791 5792 5792 5793 5793 5793 5794 5795 5794 5794 5794 5794 5794 5794 5794 5794 5795 5795 5795 5796 5796 5797 5798 5799 5801 5802 5803 5804 5805 5806 5806 5807 5809 5809 5810 5811 5813 5813 5815 5819 5823 5827 5831 5833 5834 5837 5838 5836 5835 5837 5841 5842 5842 5845 5848 5850 5851 5852 5854 5857 5860 5863 5865 5867 5869 5869 5870 5872 5875 5877 5878 5880 5882 5883 5884 5885 5885 5887
5789 5788 5788 5788 5788 5788 5789 5789 5789 5789 5790 5790 5791 5791 5792 5792 5793 5793 5793 5794 5793 5792 5793 5793 5792 5793 5794 5794 5794 5795 5795 5795 5796 5797 5799 5800 5801 5803 5804 5805 5805 5806 5808 5808 5807 5809 5811 5812 5813 5815 5818 5822 5826 5828 5830 5832 5831 5829 5831 5835 5837 5838 5840 5844 5845 5847 5848 5849 5851 5854 5857 5860 5861 5864 5867 5868 5869 5871 5874 5876 5877 5878 5880 5881 5883 5884 5886 5887